Location: Archemont
(49.1579°N, 1.7598°E)
Time: 20:41:33
(UTC+00:00)

Cosmos 2315 Rocket - Pass Details

Date: 03 February 2023
Orbit: 965 x 1002 km, 82.9° (Epoch: 21 March)

Event Time Altitude Azimuth Distance (km) Brightness Sun altitude
Rises 18:48:19 0° 159° (SSE) 3,692 6.9 -19.1°
Reaches altitude 10° 18:51:00 10° 151° (SSE) 2,753 6.1 -19.5°
Maximum altitude 18:56:42 37° 87° (E) 1,509 4.4 -20.5°
Drops below altitude 10° 19:02:28 10° 23° (NNE) 2,785 6.2 -21.4°
Sets 19:05:11 0° 15° (NNE) 3,740 6.9 -21.8°
